Location: Calberlah
(52.4230°N, 10.6240°E)
Time: 19:24:27
(UTC+00:00)

SL-16 R/B - Pass Details

Date: 19 May 2025
Orbit: 841 x 844 km, 71.0° (Epoch: 20 June)

Event Time Altitude Azimuth Distance (km) Brightness Sun altitude
Rises 22:40:30 0° 327° (NNW) 3,415 6.6 -17.2°
Reaches altitude 10° 22:42:59 10° 324° (NW) 2,476 5.6 -17.3°
Maximum altitude 22:48:33 60° 246° (WSW) 969 2.4 -17.4°
Enters shadow 22:51:19 29° 178° (S) 1,490 2.9 -17.4°
